Location: Newark
(43.0000°N, 1.6781°W)
Time: 10:53:26
(UTC+00:00)

Explorer 7 - Pass Details

Date: 27 April 2021
Orbit: 484 x 677 km, 50.3° (Epoch: 07 May)

Event Time Altitude Azimuth Distance (km) Brightness Sun altitude
Rises 00:20:46 0° 293° (WNW) 2,792 10.6 -33.0°
Enters shadow 00:20:46 - 293° (WNW) 2,791 10.6 -33.0°
Reaches altitude 10° 00:23:13 10° 281° (W) 1,926 - -33.0°
Maximum altitude 00:26:57 27° 223° (SW) 1,186 - -32.9°
Drops below altitude 10° 00:30:51 10° 166° (SSE) 2,015 - -32.8°
Sets 00:33:30 0° 154° (SSE) 2,949 - -32.8°
